Flag for Germany Weather past 2 weeks in Neumünster, Schleswig-Holstein, Germany

Now
52 °F

Overcast.


Feels Like: 52 °F
Forecast: 51 / 62 °F
Wind: 1 mph from South

Location: Itzehoe

Current Time: Aug 22, 2014 at 6:01:40 AM

Latest Report: Aug 22, 2014 at 4:00 AM


Visibility: 3 mi

Pressure: 29.86 "Hg

Humidity: 91%

Dew point: 50 °F

Location of NeumünsterLocation

Historic Weather in Neumünster — Graph

°F

Neumünster temperature yesterday

Maximum temperature yesterday: 62 °F (at 3:00 PM)
Minimum temperature yesterday: 47 °F (at 7:00 AM)
Average temperature yesterday: 55 °F

Past Weeks' High & Low Weather Summary

 TemperatureHumidityPressure
High77 °F (Aug 8, 6:00 PM)100% (Aug 8, 7:00 AM)30.00 "Hg (Aug 8, 7:00 AM)
Low47 °F (Aug 21, 7:00 AM)40% (Aug 8, 6:00 PM)29.44 "Hg (Aug 18, 9:00 AM)
Average60 °F80%29.78 "Hg
* Reported Aug 7 4:00 AM — Aug 22 4:00 AM, Neumünster, Weather by CustomWeather, © 2014

Note: Actual official high and low records may vary slightly from our data, if they occured in-between our weather recording intervals... More about our weather records

Advertising

Neumünster weather history for previous 24 hours

 ConditionsComfort  
Time TempWeatherWind HumidityBarometerVisibility
4:00 AM
Aug 22
52 °FOvercast.1 mph91%29.86 "Hg3 mi
3:00 AM53 °FOvercast.1 mph88%29.87 "Hg5 mi
1:00 AM53 °FOvercast.1 mph90%29.90 "Hg6 mi
12:00 AM54 °FOvercast.2 mph88%29.91 "Hg9 mi
10:00 PM
Aug 21
53 °FOvercast.1 mph94%29.92 "Hg3 mi
9:00 PM54 °FOvercast.2 mph90%29.93 "Hg10 mi
7:00 PM61 °FPartly sunny.2 mph58%29.91 "Hg37 mi
6:00 PM62 °FOvercast.2 mph58%29.93 "Hg34 mi
4:00 PM61 °FPartly sunny.3 mph59%29.94 "Hg28 mi
3:00 PM62 °FSunny.5 mph57%29.95 "Hg17 mi
1:00 PM61 °FPassing clouds.5 mph63%29.95 "Hg22 mi
12:00 PM58 °FOvercast.5 mph67%29.95 "Hg25 mi
10:00 AM55 °FScattered clouds.5 mph84%29.95 "Hg12 mi
9:00 AM51 °FScattered clouds.3 mph89%29.95 "Hg14 mi
7:00 AM47 °FPassing clouds.2 mph96%29.94 "Hg8 mi
6:00 AM48 °FPassing clouds.2 mph96%29.93 "HgN/A
Weather by CustomWeather, © 2014

See weather overviewHow to use our weather pages